[[{"header":{"parameterUnit":"m.s-1","parameterCategory":2,"la1":30.2991,"la2":30.254,"lo1":-89.0895,"lo2":-89.0444,"dy":0.0017,"dx":0.0017,"nx":28,"ny":28,"refTime":"2025-12-06T09:00:00:Z","depth":"0","parameterNumber":2,"parameterNumberName":"U-component_of_CURRENTS"},"data":[0,0,0,0,0,0,0,0,0,0,0,0,0,0,0,0,0,0,0,0,0,0,0,0,0,0,0,0,0,0,0,0,0,0,0,0,0,0,0,0,0,0,0,0,0,0,0,0,0,0,0,0,0,0,0,0,0,0,0.3415,0.3413,0,0.3147,0.3143,0.3139,0.2977,0.2977,0.2977,0.2978,0.2897,0.2895,0.2893,0,0,0,0,0,0,0,0,0,0,0,0,0,0.3595,0.3593,0.3415,0.3413,0.341,0.3148,0.3143,0.3138,0.2977,0.2977,0.2977,0.2978,0.2898,0.2895,0.2893,0,0,0,0,0,0,0,0,0,0,0,0,0,0.3431,0.3593,0.3415,0.3306,0.3295,0.3149,0.3143,0.3137,0.2977,0.2977,0.2977,0.2978,0.2899,0.2896,0.2892,0.2864,0,0,0.2882,0.288,0,0,0,0,0,0,0,0,0.3441,0.3424,0.3325,0.3314,0.3301,0.3105,0.3177,0.3059,0.2977,0.3086,0.2978,0.2978,0.2992,0.298,0.2911,0.286,0.2857,0.2881,0.2879,0.2878,0.2877,0,0,0,0,0,0,0,0.3453,0.3433,0.3298,0.3323,0.3308,0.3206,0.3184,0.3151,0.3035,0.3076,0.3067,0.3054,0.2985,0.2914,0.2909,0.2855,0.2881,0.2878,0.2876,0.2875,0.2828,0.2828,0,0,0,0,0,0,0.3518,0.3445,0.3306,0.3291,0.3386,0.3204,0.3178,0.3159,0.3031,0.3013,0.3054,0.3048,0.292,0.2913,0.2906,0.2918,0.2878,0.2874,0.2872,0.2827,0.2828,0.2829,0,0,0,0,0,0,0.3522,0.3507,0.3317,0.3371,0.3341,0.3203,0.3181,0.3154,0.3106,0.3014,0.2998,0.3041,0.292,0.2911,0.2897,0.2913,0.2873,0.287,0.2826,0.2827,0.2828,0.2911,0,0,0,0,0,0,0.3528,0.351,0.3497,0.3375,0.3341,0.325,0.3181,0.3148,0.3103,0.3092,0.2998,0.2987,0.2919,0.2902,0.2893,0.2907,0.2867,0.2825,0.2826,0.2828,0.2907,0.2915,0.2922,0,0,0,0,0,0.3535,0.3504,0.3498,0.3481,0.3334,0.3251,0.3222,0.3117,0.3103,0.3077,0.3026,0.2991,0.2906,0.29,0.2889,0.2903,0.2824,0.2826,0.2828,0.2904,0.2913,0.2921,0,0,0,0,0,0,0.3537,0.3483,0.3473,0.3418,0.3363,0.3229,0.318,0.3145,0.3073,0.307,0.3,0.2986,0.2978,0.2937,0.2933,0.2895,0.2861,0.2861,0.2923,0.2931,0.2938,0.2946,0.2864,0,0,0,0,0,0.3551,0.3528,0.3468,0.3422,0.3407,0.3313,0.3264,0.3212,0.3143,0.3108,0.305,0.3,0.2969,0.2953,0.2906,0.2892,0.2889,0.2895,0.2902,0.2909,0.2908,0.293,0.294,0.2835,0.2835,0.2835,0,0,0.3528,0.3504,0.348,0.3425,0.3366,0.333,0.328,0.3221,0.3189,0.312,0.3058,0.3028,0.2974,0.2942,0.2936,0.2916,0.2941,0.2911,0.2917,0.2912,0.2933,0.2944,0.2953,0.2836,0.2836,0.2836,0,0,0.3494,0.3472,0.3457,0.3431,0.3389,0.3335,0.3347,0.3254,0.3213,0.317,0.3121,0.3109,0.3035,0.2995,0.2972,0.3002,0.2983,0.2995,0.303,0.3053,0.3062,0.307,0.31,0.311,0.2993,0.2994,0.2994,0,0.3476,0.3454,0.3433,0.3426,0.3401,0.3362,0.3344,0.3291,0.3203,0.3188,0.3167,0.309,0.3053,0.3039,0.3038,0.3018,0.3032,0.3002,0.3064,0.3072,0.3078,0.3107,0.3116,0.2998,0.2997,0.2997,0.2996,0,0.3441,0.3432,0.342,0.3412,0.3385,0.3356,0.3324,0.3296,0.3267,0.322,0.3206,0.3152,0.3109,0.3106,0.3074,0.3105,0.3103,0.3078,0.3046,0.3094,0.3121,0.313,0.3004,0.3002,0.3001,0.3,0,0,0.3364,0.3396,0.3389,0.3404,0.3384,0.3353,0.3337,0.3304,0.3293,0.3246,0.3232,0.3196,0.3186,0.3161,0.314,0.316,0.3226,0.3144,0.3143,0.3181,0.3294,0.3274,0.3281,0.3221,0.3222,0.3224,0.3302,0,0.3342,0.3358,0.3367,0.3355,0.3358,0.3347,0.333,0.3305,0.3277,0.3252,0.3245,0.3217,0.3203,0.3195,0.3218,0.3212,0.325,0.3208,0.3234,0.3234,0.3217,0.3291,0.3112,0.3165,0.331,0.3311,0.3312,0,0.3296,0.3323,0.3333,0.336,0.3358,0.3342,0.3326,0.3308,0.3291,0.3277,0.3277,0.3256,0.3276,0.3257,0.3304,0.3282,0.3301,0.3307,0.331,0.3264,0.3231,0.3135,0.3175,0.2998,0.3325,0.3324,0.3323,0,0.3257,0.3286,0.3305,0.3309,0.333,0.3328,0.3325,0.331,0.3296,0.3297,0.3289,0.3309,0.3311,0.3344,0.336,0.3336,0.3422,0.3381,0.3392,0.339,0.3227,0.3209,0.3098,0.3438,0.3437,0.3437,0.3437,0,0.3224,0.3225,0.3293,0.3294,0.3296,0.3319,0.3306,0.3304,0.3306,0.3294,0.3305,0.3306,0.3335,0.3373,0.3392,0.343,0.3453,0.3418,0.3415,0.3253,0.3237,0.3064,0.3031,0.344,0.3439,0.3439,0.3438,0,0.3159,0.321,0.3223,0.3269,0.3277,0.3272,0.3287,0.3279,0.3294,0.3284,0.3287,0.3316,0.3374,0.3417,0.3474,0.3463,0.339,0.3514,0.3332,0.3307,0.312,0.31,0.3012,0.2929,0.3518,0.3518,0.3518,0,0.3129,0.3139,0.319,0.32,0.3215,0.3226,0.3227,0.3255,0.3256,0.3282,0.3279,0.3338,0.3379,0.3473,0.3471,0.3525,0.3402,0.337,0.3283,0.3103,0.3078,0.301,0.2942,0.3106,0.3103,0.31,0.3098,0,0.3064,0.3086,0.3111,0.3146,0.3157,0.3162,0.3179,0.3182,0.3216,0.3224,0.3265,0.3308,0.3389,0.3365,0.3427,0.3406,0.3166,0.3317,0.3155,0.2781,0.2672,0.2591,0.3077,0.3074,0.3076,0.3078,0.3079,0.308,0.3009,0.3016,0.3071,0.3096,0.3105,0.3109,0.3092,0.3115,0.3125,0.3101,0.3204,0.321,0.3202,0.3265,0.3223,0.2954,0.3063,0.28,0.2807,0.2767,0.2627,0.3084,0.3062,0.3064,0.3066,0.3068,0.3069,0,0.2969,0.3002,0.3021,0.3056,0.3053,0.3071,0.3066,0.3024,0.3015,0.3009,0.3029,0.2978,0.2889,0.2811,0.2599,0.2443,0.2327,0.2319,0.2121,0.2094,0.2489,0.2403,0.2203,0.2203,0.2203,0.2203,0.2204,0.2204,0.2953,0.2981,0.3012,0.302,0.3025,0.2968,0.295,0.2866,0.2839,0.2699,0.2632,0.2654,0.2559,0.2322,0.2003,0.1927,0.1749,0.1706,0.1745,0.193,0.1971,0.2011,0.1914,0.1615,0.1615,0.1202,0.1199,0.1196]},{"header":{"parameterUnit":"m.s-1","parameterCategory":2,"la1":30.2991,"la2":30.254,"lo1":-89.0895,"lo2":-89.0444,"dy":0.0017,"dx":0.0017,"nx":28,"ny":28,"refTime":"2025-12-06T09:00:00:Z","depth":"0","parameterNumber":3,"parameterNumberName":"V-component_of_CURRENTS"},"data":[0,0,0,0,0,0,0,0,0,0,0,0,0,0,0,0,0,0,0,0,0,0,0,0,0,0,0,0,0,0,0,0,0,0,0,0,0,0,0,0,0,0,0,0,0,0,0,0,0,0,0,0,0,0,0,0,0,0,-0.1631,-0.1629,0,-0.1385,-0.1382,-0.1379,-0.1197,-0.1196,-0.1195,-0.1194,-0.1183,-0.1183,-0.1184,0,0,0,0,0,0,0,0,0,0,0,0,0,-0.1751,-0.1751,-0.1632,-0.1629,-0.1626,-0.1386,-0.1382,-0.1378,-0.1198,-0.1196,-0.1195,-0.1194,-0.1182,-0.1183,-0.1184,0,0,0,0,0,0,0,0,0,0,0,0,0,-0.1617,-0.175,-0.1632,-0.1512,-0.1499,-0.1387,-0.1382,-0.1377,-0.1198,-0.1196,-0.1195,-0.1193,-0.1182,-0.1183,-0.1184,-0.1222,0,0,-0.1187,-0.1188,0,0,0,0,0,0,0,0,-0.1625,-0.1612,-0.1532,-0.152,-0.1505,-0.1325,-0.142,-0.1339,-0.1198,-0.1306,-0.1194,-0.1192,-0.1257,-0.1252,-0.1197,-0.1221,-0.1221,-0.1187,-0.1188,-0.1188,-0.1189,0,0,0,0,0,0,0,-0.1635,-0.162,-0.1528,-0.1529,-0.1513,-0.1404,-0.1384,-0.1401,-0.1294,-0.1296,-0.1284,-0.1266,-0.125,-0.1197,-0.1197,-0.1221,-0.1187,-0.1188,-0.1189,-0.1189,-0.1249,-0.125,0,0,0,0,0,0,-0.1689,-0.1631,-0.1536,-0.1521,-0.1569,-0.1404,-0.1382,-0.138,-0.1288,-0.1272,-0.1268,-0.1259,-0.1196,-0.1196,-0.1196,-0.1212,-0.1188,-0.1189,-0.119,-0.1248,-0.1249,-0.125,0,0,0,0,0,0,-0.1692,-0.1683,-0.1546,-0.1573,-0.1549,-0.1406,-0.1404,-0.1376,-0.133,-0.1264,-0.1251,-0.1253,-0.1194,-0.1195,-0.1217,-0.1212,-0.119,-0.1191,-0.1247,-0.1248,-0.125,-0.1262,0,0,0,0,0,0,-0.1697,-0.1687,-0.1683,-0.1578,-0.155,-0.1481,-0.1405,-0.1373,-0.1324,-0.131,-0.1249,-0.1243,-0.1193,-0.1216,-0.1218,-0.1213,-0.1191,-0.1246,-0.1248,-0.1249,-0.126,-0.1264,-0.1266,0,0,0,0,0,-0.1703,-0.1707,-0.1685,-0.1672,-0.1558,-0.1481,-0.1455,-0.1343,-0.1326,-0.1299,-0.1273,-0.1246,-0.1228,-0.1219,-0.1221,-0.1215,-0.1245,-0.1247,-0.1249,-0.1259,-0.1263,-0.1266,0,0,0,0,0,0,-0.1746,-0.1687,-0.166,-0.1644,-0.1574,-0.1453,-0.142,-0.137,-0.132,-0.1327,-0.1273,-0.1267,-0.1276,-0.1266,-0.1257,-0.124,-0.1228,-0.1231,-0.1235,-0.1239,-0.1242,-0.1214,-0.1192,0,0,0,0,0,-0.1766,-0.1756,-0.1681,-0.1665,-0.1649,-0.155,-0.1505,-0.1443,-0.1392,-0.1363,-0.1316,-0.1294,-0.1285,-0.1281,-0.1264,-0.128,-0.1234,-0.1276,-0.1279,-0.1281,-0.1262,-0.1203,-0.1197,-0.1258,-0.1258,-0.1257,0,0,-0.1773,-0.1744,-0.1732,-0.1674,-0.1619,-0.1579,-0.1517,-0.1471,-0.1421,-0.1386,-0.1325,-0.1315,-0.1297,-0.1279,-0.1284,-0.1272,-0.1242,-0.1284,-0.1286,-0.1265,-0.1204,-0.1198,-0.1192,-0.1259,-0.1259,-0.1259,0,0,-0.1789,-0.1776,-0.1771,-0.173,-0.1672,-0.161,-0.1617,-0.1519,-0.146,-0.1424,-0.1385,-0.1373,-0.1347,-0.1303,-0.1294,-0.1322,-0.1266,-0.133,-0.1314,-0.1258,-0.1251,-0.1245,-0.1177,-0.1164,-0.1324,-0.1324,-0.1324,0,-0.1802,-0.1785,-0.1751,-0.1739,-0.1702,-0.1644,-0.1621,-0.1557,-0.1465,-0.1423,-0.1413,-0.1342,-0.1343,-0.131,-0.1308,-0.1323,-0.128,-0.1298,-0.1258,-0.1251,-0.1244,-0.1175,-0.1161,-0.1325,-0.1325,-0.1325,-0.1325,0,-0.18,-0.1789,-0.1793,-0.1758,-0.1717,-0.1693,-0.1624,-0.1572,-0.1521,-0.144,-0.1388,-0.1361,-0.1304,-0.1317,-0.1323,-0.1282,-0.1263,-0.1271,-0.1239,-0.1237,-0.1167,-0.1152,-0.1326,-0.1326,-0.1326,-0.1325,0,0,-0.1841,-0.1796,-0.1798,-0.1773,-0.1729,-0.1687,-0.1642,-0.1552,-0.1488,-0.1419,-0.1326,-0.1323,-0.1287,-0.1275,-0.1274,-0.1238,-0.1172,-0.1239,-0.1236,-0.1155,-0.1029,-0.0992,-0.0972,-0.117,-0.1168,-0.1166,-0.0997,0,-0.1848,-0.1814,-0.1794,-0.1755,-0.1733,-0.168,-0.162,-0.1539,-0.1457,-0.1351,-0.1315,-0.1242,-0.1277,-0.125,-0.1221,-0.1179,-0.1133,-0.1215,-0.1057,-0.1052,-0.1005,-0.0954,-0.0901,-0.0744,-0.0982,-0.098,-0.0978,0,-0.1857,-0.1829,-0.1786,-0.1727,-0.1714,-0.1678,-0.1566,-0.1503,-0.1375,-0.1309,-0.1235,-0.1184,-0.1123,-0.1156,-0.105,-0.1099,-0.1066,-0.1037,-0.1029,-0.0973,-0.0986,-0.0787,-0.0707,-0.0797,-0.0954,-0.0956,-0.0958,0,-0.186,-0.183,-0.1783,-0.1764,-0.1685,-0.1651,-0.1604,-0.1486,-0.14,-0.1273,-0.1184,-0.1109,-0.1035,-0.0993,-0.0936,-0.0984,-0.0806,-0.0857,-0.0784,-0.0781,-0.0692,-0.0685,-0.0661,-0.0775,-0.0775,-0.0775,-0.0776,0,-0.1862,-0.1834,-0.178,-0.1747,-0.1682,-0.1646,-0.1549,-0.1476,-0.1352,-0.1216,-0.1162,-0.1032,-0.0991,-0.0883,-0.0874,-0.0756,-0.0744,-0.0749,-0.0725,-0.0698,-0.0693,-0.0734,-0.0821,-0.0769,-0.077,-0.0772,-0.0773,0,-0.1857,-0.1822,-0.1764,-0.1694,-0.1674,-0.1621,-0.1521,-0.1432,-0.133,-0.1148,-0.1101,-0.0942,-0.0786,-0.0734,-0.0628,-0.0642,-0.0586,-0.0535,-0.05,-0.0476,-0.0522,-0.0612,-0.0528,-0.0564,-0.0417,-0.0415,-0.0413,0,-0.1839,-0.1811,-0.1724,-0.1675,-0.1642,-0.1574,-0.1506,-0.1419,-0.131,-0.1069,-0.0962,-0.0774,-0.0594,-0.0424,-0.0396,-0.0321,-0.0452,-0.0285,-0.0381,-0.0485,-0.0567,-0.0641,-0.0685,-0.0262,-0.0259,-0.0257,-0.0255,0,-0.1812,-0.1777,-0.1718,-0.1621,-0.1554,-0.1466,-0.1371,-0.1279,-0.1125,-0.0932,-0.0664,-0.0511,-0.0344,-0.0195,-0.0141,-0.0145,-0.0353,-0.0236,-0.034,-0.0431,-0.0507,-0.0543,-0.0421,-0.0235,-0.0237,-0.0238,-0.0239,-0.024,-0.1788,-0.1734,-0.1649,-0.1555,-0.1471,-0.1336,-0.1211,-0.1058,-0.0829,-0.047,-0.0429,-0.009,-0.005,0.0068,-0.0004,-0.0102,-0.0173,-0.0163,-0.0252,-0.0308,-0.0381,-0.0214,-0.0019,-0.002,-0.002,-0.0021,-0.0022,0,-0.1738,-0.167,-0.1588,-0.1446,-0.131,-0.1282,-0.1086,-0.0889,-0.0549,-0.0234,0.0045,0.0325,0.033,0.0243,0.01,-0.0077,-0.0198,-0.0203,-0.0313,-0.0352,-0.017,-0.0206,-0.0047,-0.0047,-0.0047,-0.0046,-0.0046,-0.0046,-0.1693,-0.1597,-0.1547,-0.1323,-0.1203,-0.0971,-0.0816,-0.0501,-0.0222,0.0304,0.0619,0.0767,0.0719,0.0228,-0.0103,-0.0208,-0.0401,-0.0403,-0.0529,-0.0445,-0.045,-0.0454,-0.0508,-0.0415,-0.0416,-0.0665,-0.0667,-0.067]}],[{"header":{"parameterUnit":"m.s-1","parameterCategory":2,"la1":30.2991,"la2":30.254,"lo1":-89.0895,"lo2":-89.0444,"dy":0.0017,"dx":0.0017,"nx":28,"ny":28,"refTime":"2025-12-06T09:00:00:Z","depth":"2","parameterNumber":2,"parameterNumberName":"U-component_of_CURRENTS"},"data":[0,0,0,0,0,0,0,0,0,0,0,0,0,0,0,0,0,0,0,0,0,0,0,0,0,0,0,0,0,0,0,0,0,0,0,0,0,0,0,0,0,0,0,0,0,0,0,0,0,0,0,0,0,0,0,0,0,0,0.1568,0.1569,0,0.1664,0.1665,0.1666,0.1719,0.1719,0.1719,0.1719,0.1676,0.1675,0.1673,0,0,0,0,0,0,0,0,0,0,0,0,0,0.1697,0.1693,0.1568,0.1569,0.157,0.1663,0.1665,0.1666,0.1719,0.1719,0.1719,0.1719,0.1676,0.1675,0.1673,0,0,0,0,0,0,0,0,0,0,0,0,0,0.1701,0.1691,0.1568,0.1608,0.1612,0.1663,0.1665,0.1666,0.1719,0.1719,0.1719,0.1719,0.1677,0.1675,0.1673,0.1658,0,0,0.1667,0.1666,0,0,0,0,0,0,0,0,0.1701,0.1696,0.1601,0.1605,0.161,0.1679,0.1695,0.1656,0.1719,0.1679,0.1719,0.172,0.1663,0.1663,0.1683,0.1656,0.1654,0.1667,0.1666,0.1665,0.1664,0,0,0,0,0,0,0,0.17,0.1694,0.1606,0.1602,0.1608,0.1712,0.171,0.169,0.1667,0.1682,0.1686,0.1696,0.1665,0.1685,0.1682,0.1653,0.1667,0.1665,0.1664,0.1663,0.167,0.1672,0,0,0,0,0,0,0.1672,0.1692,0.1603,0.1609,0.1656,0.1708,0.1707,0.1657,0.167,0.1673,0.1696,0.1698,0.1688,0.1684,0.168,0.1715,0.1665,0.1663,0.1662,0.1669,0.1671,0.1672,0,0,0,0,0,0,0.1673,0.1661,0.1599,0.1657,0.1656,0.1703,0.1649,0.1659,0.1693,0.1682,0.1683,0.1722,0.1688,0.1683,0.1681,0.1711,0.1662,0.1661,0.1668,0.167,0.1671,0.1749,0,0,0,0,0,0,0.1675,0.1659,0.1645,0.1652,0.1652,0.1637,0.165,0.1661,0.1698,0.1702,0.1703,0.17,0.1688,0.1684,0.1679,0.1708,0.1659,0.1666,0.1668,0.1671,0.1745,0.1754,0.1761,0,0,0,0,0,0.1679,0.1643,0.1642,0.1635,0.1617,0.1637,0.1648,0.1686,0.1699,0.1717,0.1721,0.17,0.1697,0.1683,0.1677,0.1706,0.1665,0.1668,0.1671,0.1742,0.1752,0.1761,0,0,0,0,0,0,0.1672,0.1645,0.1645,0.1595,0.1622,0.1646,0.1681,0.1693,0.1716,0.1724,0.1708,0.1704,0.1717,0.1697,0.1683,0.1717,0.168,0.1682,0.1737,0.1746,0.1754,0.1774,0.1658,0,0,0,0,0,0.1665,0.1668,0.1636,0.1628,0.1623,0.1655,0.1679,0.1694,0.1707,0.172,0.173,0.1731,0.1724,0.1723,0.1718,0.1726,0.1722,0.1744,0.1752,0.1759,0.1772,0.1802,0.1814,0.1682,0.1682,0.1682,0,0,0.1682,0.1666,0.1673,0.1638,0.1664,0.1668,0.1671,0.1703,0.1729,0.1706,0.1761,0.1755,0.1731,0.1753,0.1757,0.1741,0.1792,0.1763,0.1769,0.1778,0.1806,0.1819,0.1831,0.1684,0.1684,0.1683,0,0,0.171,0.1675,0.1678,0.1673,0.169,0.1714,0.1717,0.1738,0.1767,0.1798,0.1795,0.1813,0.1811,0.1816,0.1808,0.1853,0.1832,0.185,0.1909,0.1938,0.1949,0.1959,0.1963,0.1973,0.1857,0.1857,0.1857,0,0.1743,0.1695,0.1695,0.1672,0.1674,0.1725,0.1711,0.1757,0.1794,0.1817,0.1823,0.1862,0.1845,0.1864,0.1891,0.1872,0.1878,0.1873,0.195,0.1959,0.1968,0.197,0.1979,0.1861,0.1861,0.1861,0.186,0,0.1731,0.1711,0.1715,0.1709,0.1712,0.1726,0.174,0.1798,0.1847,0.1882,0.1931,0.1936,0.1961,0.196,0.1938,0.1994,0.1973,0.1955,0.1927,0.1987,0.1983,0.1992,0.1867,0.1866,0.1865,0.1864,0,0,0.1755,0.1721,0.1724,0.1715,0.1716,0.172,0.1777,0.1826,0.1891,0.1946,0.2005,0.2025,0.2057,0.2051,0.2043,0.2072,0.2136,0.2051,0.2051,0.2058,0.2192,0.2122,0.2124,0.2137,0.2139,0.2141,0.2162,0,0.1762,0.1736,0.1706,0.172,0.1698,0.1728,0.1781,0.1836,0.1917,0.2007,0.2035,0.2089,0.2082,0.2106,0.2142,0.2142,0.2164,0.2131,0.2131,0.2131,0.2064,0.2134,0.1963,0.1964,0.217,0.2172,0.2173,0,0.1733,0.1721,0.1711,0.1709,0.1699,0.1736,0.1825,0.1867,0.199,0.2041,0.212,0.2159,0.2223,0.2202,0.2262,0.2246,0.2232,0.2224,0.2224,0.214,0.2078,0.1939,0.1971,0.2187,0.2186,0.2185,0.2184,0,0.174,0.1718,0.1728,0.1713,0.1728,0.1759,0.1798,0.19,0.1944,0.2081,0.2143,0.2229,0.2278,0.2303,0.2322,0.2299,0.2371,0.2327,0.2242,0.2235,0.2079,0.2056,0.2355,0.2355,0.2355,0.2355,0.2355,0,0.1726,0.1725,0.175,0.1741,0.1774,0.1767,0.1849,0.1908,0.2005,0.2065,0.2171,0.2235,0.2311,0.2366,0.2357,0.2347,0.2405,0.227,0.2249,0.2099,0.2078,0.226,0.2249,0.2355,0.2355,0.2355,0.2355,0,0.1709,0.1734,0.1727,0.1756,0.1775,0.1792,0.1846,0.1897,0.201,0.2095,0.2132,0.2258,0.232,0.2375,0.241,0.2381,0.2374,0.234,0.2153,0.2109,0.2201,0.2194,0.2247,0.2245,0.2243,0.2241,0.224,0,0.1691,0.17,0.173,0.1741,0.1759,0.1801,0.1825,0.1897,0.192,0.2094,0.2096,0.2225,0.2259,0.2312,0.2292,0.2272,0.2323,0.2096,0.2015,0.2223,0.2197,0.2192,0.2187,0.1832,0.1827,0.1824,0.1821,0,0.1644,0.1685,0.1678,0.1713,0.1738,0.1748,0.1777,0.179,0.1874,0.1964,0.2037,0.2094,0.2145,0.2057,0.2066,0.203,0.2094,0.2018,0.2309,0.1886,0.1834,0.1807,0.1816,0.1789,0.1792,0.1794,0.1796,0.1797,0.162,0.1608,0.1642,0.1652,0.1691,0.1694,0.1686,0.1696,0.1733,0.1779,0.1853,0.1858,0.1886,0.1778,0.1742,0.1743,0.1868,0.1787,0.1798,0.1813,0.1762,0.1709,0.163,0.1632,0.1634,0.1635,0.1637,0,0.1567,0.1576,0.1578,0.1572,0.1577,0.164,0.1646,0.1587,0.1589,0.1588,0.1601,0.1448,0.1393,0.1441,0.1379,0.1391,0.1375,0.1344,0.1308,0.1342,0.1372,0.1297,0.1042,0.104,0.1039,0.1037,0,0,0.1548,0.1516,0.1496,0.1466,0.1492,0.1461,0.1472,0.1398,0.1364,0.1269,0.1232,0.1243,0.1345,0.1135,0.1143,0.1079,0.1191,0.1037,0.1517,0.1504,0.1531,0.1636,0.1561,0,0,0,0,0]},{"header":{"parameterUnit":"m.s-1","parameterCategory":2,"la1":30.2991,"la2":30.254,"lo1":-89.0895,"lo2":-89.0444,"dy":0.0017,"dx":0.0017,"nx":28,"ny":28,"refTime":"2025-12-06T09:00:00:Z","depth":"2","parameterNumber":3,"parameterNumberName":"V-component_of_CURRENTS"},"data":[0,0,0,0,0,0,0,0,0,0,0,0,0,0,0,0,0,0,0,0,0,0,0,0,0,0,0,0,0,0,0,0,0,0,0,0,0,0,0,0,0,0,0,0,0,0,0,0,0,0,0,0,0,0,0,0,0,0,0.0252,0.0251,0,0.0156,0.0155,0.0155,0.0096,0.0095,0.0094,0.0093,0.0119,0.0121,0.0123,0,0,0,0,0,0,0,0,0,0,0,0,0,0.0217,0.022,0.0252,0.025,0.0248,0.0156,0.0155,0.0154,0.0096,0.0095,0.0094,0.0092,0.0119,0.0121,0.0123,0,0,0,0,0,0,0,0,0,0,0,0,0,0.0196,0.0221,0.0253,0.0202,0.0196,0.0156,0.0155,0.0154,0.0096,0.0095,0.0093,0.0092,0.0118,0.0121,0.0123,0.0169,0,0,0.0131,0.0132,0,0,0,0,0,0,0,0,0.0197,0.0198,0.0212,0.0206,0.0199,0.0129,0.0151,0.0163,0.0097,0.0143,0.0093,0.0091,0.013,0.0131,0.0126,0.017,0.0172,0.0131,0.0132,0.0134,0.0134,0,0,0,0,0,0,0,0.0199,0.0201,0.0222,0.0209,0.0201,0.0125,0.0123,0.0153,0.0155,0.0139,0.0132,0.0109,0.0128,0.0124,0.0127,0.0172,0.0131,0.0133,0.0135,0.0136,0.0205,0.0205,0,0,0,0,0,0,0.0206,0.0204,0.0225,0.0218,0.0185,0.0128,0.0125,0.016,0.0152,0.0145,0.011,0.0107,0.0121,0.0124,0.0128,0.0154,0.0134,0.0136,0.0137,0.0204,0.0205,0.0205,0,0,0,0,0,0,0.0207,0.0212,0.0229,0.0198,0.0194,0.013,0.0169,0.0158,0.0128,0.0127,0.0125,0.0086,0.0119,0.0124,0.015,0.0155,0.0137,0.0139,0.0204,0.0204,0.0205,0.0225,0,0,0,0,0,0,0.0208,0.0214,0.0239,0.0201,0.0196,0.0202,0.0169,0.0157,0.0113,0.0107,0.0107,0.0108,0.0119,0.0147,0.0153,0.0159,0.0141,0.0203,0.0204,0.0205,0.0224,0.0226,0.0228,0,0,0,0,0,0.0208,0.0253,0.0243,0.0243,0.0236,0.0202,0.0193,0.0145,0.0113,0.011,0.0113,0.0107,0.0154,0.015,0.0157,0.0163,0.0203,0.0204,0.0205,0.0223,0.0226,0.0228,0,0,0,0,0,0,0.024,0.025,0.0237,0.0282,0.0238,0.0188,0.0182,0.0136,0.0132,0.0123,0.0126,0.013,0.0153,0.0157,0.0151,0.0183,0.0172,0.0175,0.0184,0.0186,0.0188,0.0198,0.0143,0,0,0,0,0,0.0262,0.0295,0.0273,0.0289,0.029,0.0231,0.0207,0.0162,0.0145,0.0137,0.0135,0.0141,0.0167,0.0173,0.0195,0.0221,0.0215,0.0223,0.0225,0.0227,0.0238,0.0242,0.0246,0.0207,0.0207,0.0207,0,0,0.0254,0.0274,0.0278,0.0295,0.027,0.0271,0.0216,0.0175,0.0161,0.0148,0.0151,0.0154,0.0176,0.0204,0.0213,0.0204,0.0231,0.0228,0.023,0.024,0.0244,0.0247,0.0251,0.0208,0.0208,0.0208,0,0,0.0278,0.0304,0.0348,0.0337,0.0304,0.0271,0.0257,0.0208,0.0187,0.0182,0.0175,0.018,0.0204,0.0221,0.0236,0.0263,0.0246,0.0256,0.0274,0.0277,0.0281,0.0283,0.0262,0.0263,0.0252,0.0252,0.0252,0,0.0261,0.0345,0.0338,0.0381,0.0373,0.0279,0.0301,0.0266,0.0216,0.0215,0.0185,0.0215,0.0217,0.0268,0.0266,0.0269,0.0258,0.0264,0.028,0.0283,0.0286,0.0264,0.0265,0.0253,0.0253,0.0253,0.0253,0,0.0332,0.0382,0.0403,0.0442,0.043,0.0419,0.0379,0.0342,0.0291,0.0259,0.0273,0.0274,0.0287,0.0283,0.0283,0.0307,0.0287,0.0286,0.0275,0.0291,0.0266,0.0267,0.0255,0.0255,0.0254,0.0254,0,0,0.033,0.0436,0.0439,0.0483,0.0465,0.0461,0.044,0.0418,0.0399,0.0354,0.0369,0.0378,0.0345,0.0359,0.035,0.0346,0.0336,0.0317,0.0317,0.0298,0.0324,0.0296,0.0294,0.0335,0.0335,0.0336,0.0291,0,0.0377,0.0494,0.0522,0.0573,0.0628,0.0563,0.0563,0.0515,0.0457,0.0441,0.0422,0.0434,0.0385,0.0386,0.0373,0.0368,0.0342,0.0347,0.031,0.0309,0.0284,0.0295,0.0295,0.0255,0.0292,0.0292,0.0292,0,0.0451,0.0526,0.0623,0.0688,0.0706,0.0703,0.0674,0.0663,0.0606,0.056,0.0532,0.0504,0.0506,0.0452,0.0424,0.0428,0.0367,0.0344,0.0342,0.0315,0.0284,0.0249,0.0254,0.0293,0.0293,0.0293,0.0292,0,0.0493,0.0592,0.068,0.0699,0.0748,0.0759,0.0758,0.0701,0.0692,0.0637,0.0601,0.0591,0.0591,0.0533,0.0454,0.0438,0.0417,0.039,0.0302,0.0298,0.0292,0.0287,0.0347,0.0347,0.0347,0.0347,0.0347,0,0.0568,0.063,0.0706,0.0757,0.0823,0.0835,0.0869,0.0819,0.0781,0.0782,0.0679,0.0677,0.0609,0.0574,0.0488,0.0405,0.0434,0.0311,0.0293,0.0296,0.0292,0.0325,0.0324,0.0345,0.0346,0.0346,0.0346,0,0.0624,0.0672,0.0774,0.0845,0.086,0.091,0.0942,0.096,0.0877,0.0865,0.0852,0.0766,0.0719,0.0623,0.0556,0.0455,0.0379,0.0328,0.0323,0.0306,0.0241,0.0241,0.0229,0.0228,0.0227,0.0226,0.0226,0,0.0689,0.0745,0.0837,0.0881,0.0919,0.0988,0.1033,0.1006,0.1014,0.0927,0.0941,0.0871,0.0836,0.0707,0.0549,0.0393,0.0372,0.0264,0.0231,0.0249,0.0233,0.0234,0.0235,0.0218,0.0217,0.0217,0.0216,0,0.0793,0.0801,0.088,0.0964,0.1029,0.1115,0.117,0.1165,0.1131,0.1107,0.1091,0.1061,0.0899,0.0761,0.0515,0.0409,0.0294,0.0245,0.029,0.0249,0.0235,0.022,0.0222,0.0211,0.0212,0.0212,0.0212,0.0212,0.0851,0.0903,0.0975,0.1059,0.1117,0.1186,0.1229,0.1285,0.1309,0.1235,0.1241,0.116,0.0973,0.0657,0.0467,0.0243,0.026,0.0166,0.0169,0.0173,0.0181,0.0167,0.0129,0.0129,0.0129,0.0129,0.0129,0,0.0922,0.0968,0.1061,0.1155,0.1202,0.1233,0.1279,0.1314,0.1344,0.1328,0.1324,0.1093,0.0903,0.0664,0.0321,0.0136,0.013,0.0076,0.0103,0.011,0.0115,0.0121,0.0053,0.0052,0.0051,0.0051,0,0,0.0961,0.1054,0.1106,0.1207,0.1239,0.1297,0.1293,0.1342,0.1326,0.1309,0.1243,0.1211,0.0919,0.0657,0.0417,0.0219,0.0206,0.0186,0.0268,0.0334,0.0341,0.0187,0.0206,0,0,0,0,0]}],[{"header":{"parameterUnit":"m.s-1","parameterCategory":2,"la1":30.2991,"la2":30.254,"lo1":-89.0895,"lo2":-89.0444,"dy":0.0017,"dx":0.0017,"nx":28,"ny":28,"refTime":"2025-12-06T09:00:00:Z","depth":"4","parameterNumber":2,"parameterNumberName":"U-component_of_CURRENTS"},"data":[0,0,0,0,0,0,0,0,0,0,0,0,0,0,0,0,0,0,0,0,0,0,0,0,0,0,0,0,0,0,0,0,0,0,0,0,0,0,0,0,0,0,0,0,0,0,0,0,0,0,0,0,0,0,0,0,0,0,0.0506,0.0508,0,0.0635,0.0637,0.0638,0.0724,0.0725,0.0726,0.0727,0.0816,0.0818,0.082,0,0,0,0,0,0,0,0,0,0,0,0,0,0.0338,0.0341,0.0506,0.0508,0.051,0.0635,0.0637,0.0638,0.0724,0.0725,0.0726,0.0727,0.0816,0.0818,0.082,0,0,0,0,0,0,0,0,0,0,0,0,0,0.0432,0.0342,0.0506,0.0569,0.0576,0.0635,0.0637,0.0639,0.0724,0.0725,0.0726,0.0728,0.0815,0.0818,0.082,0.0812,0,0,0.0828,0.0829,0,0,0,0,0,0,0,0,0.0426,0.0438,0.0558,0.0565,0.0573,0.0667,0.0611,0.0695,0.0724,0.0666,0.0727,0.0728,0.0763,0.077,0.0789,0.0816,0.082,0.0828,0.0829,0.083,0.0831,0,0,0,0,0,0,0,0.042,0.0433,0.0555,0.056,0.0569,0.0593,0.0607,0.0627,0.0704,0.0671,0.0678,0.0695,0.0767,0.0787,0.0792,0.0822,0.0828,0.083,0.0832,0.0833,0.0929,0.093,0,0,0,0,0,0,0.0407,0.0427,0.0551,0.056,0.0503,0.0595,0.0611,0.0634,0.0705,0.0718,0.0694,0.0699,0.0782,0.0789,0.0795,0.0861,0.083,0.0833,0.0834,0.0928,0.093,0.0931,0,0,0,0,0,0,0.0403,0.0417,0.0546,0.0497,0.0515,0.0597,0.0622,0.0636,0.068,0.0723,0.0735,0.0727,0.0783,0.0792,0.0834,0.0862,0.0834,0.0836,0.0927,0.0929,0.093,0.0945,0,0,0,0,0,0,0.0397,0.0414,0.043,0.0496,0.0518,0.0594,0.0621,0.0638,0.0688,0.0696,0.0754,0.0763,0.0785,0.083,0.0836,0.0865,0.0838,0.0926,0.0928,0.093,0.0943,0.0947,0.095,0,0,0,0,0,0.0391,0.0405,0.043,0.0445,0.0535,0.0595,0.0608,0.0668,0.0688,0.0711,0.075,0.0762,0.0848,0.0833,0.084,0.087,0.0925,0.0927,0.093,0.0942,0.0946,0.095,0,0,0,0,0,0,0.0334,0.0417,0.0446,0.0484,0.0541,0.0611,0.0636,0.0674,0.0724,0.0735,0.077,0.0782,0.0832,0.0844,0.0827,0.0904,0.089,0.0894,0.0897,0.0902,0.0905,0.0902,0.084,0,0,0,0,0,0.0328,0.0365,0.0442,0.0471,0.0502,0.057,0.0603,0.0648,0.0699,0.0724,0.0766,0.0807,0.0843,0.0867,0.0899,0.0934,0.0948,0.096,0.0963,0.0966,0.0969,0.1012,0.1019,0.0939,0.0939,0.0939,0,0,0.031,0.0362,0.0382,0.0462,0.051,0.0563,0.0593,0.0651,0.0695,0.0722,0.0789,0.082,0.0854,0.0902,0.0926,0.0919,0.0997,0.0969,0.0971,0.0973,0.1015,0.1023,0.103,0.094,0.094,0.094,0,0,0.0295,0.0344,0.0375,0.0428,0.0511,0.0559,0.0579,0.0664,0.0704,0.0764,0.0797,0.0843,0.0901,0.0935,0.0956,0.0994,0.1013,0.101,0.1029,0.107,0.1077,0.1083,0.1111,0.1119,0.1014,0.1014,0.1014,0,0.028,0.0328,0.0389,0.0438,0.0484,0.0559,0.0606,0.0656,0.0744,0.0776,0.0789,0.089,0.0917,0.0975,0.0994,0.1003,0.1026,0.1009,0.1074,0.1081,0.1087,0.1114,0.1123,0.1015,0.1015,0.1015,0.1015,0,0.0295,0.034,0.0361,0.0453,0.0507,0.0557,0.0641,0.0696,0.0751,0.0803,0.0877,0.092,0.0982,0.0999,0.1009,0.1072,0.1074,0.1071,0.1061,0.1096,0.1122,0.1131,0.1016,0.1016,0.1016,0.1015,0,0,0.0264,0.0355,0.0369,0.0411,0.0523,0.0571,0.0643,0.0731,0.0783,0.0858,0.092,0.0984,0.1016,0.1041,0.1068,0.1102,0.1162,0.1108,0.111,0.1131,0.1252,0.1154,0.1154,0.1176,0.1178,0.1179,0.1253,0,0.0269,0.0336,0.0391,0.0468,0.0516,0.0603,0.0665,0.0751,0.0822,0.0899,0.0953,0.1025,0.103,0.1071,0.1105,0.1152,0.1188,0.1142,0.122,0.1222,0.1126,0.1162,0.1185,0.1259,0.1262,0.1263,0.1264,0,0.0283,0.0328,0.0388,0.0484,0.0515,0.0571,0.069,0.0758,0.0869,0.0927,0.1004,0.1055,0.1131,0.1125,0.1219,0.1193,0.1227,0.1252,0.1255,0.1164,0.114,0.1219,0.1281,0.128,0.1279,0.1277,0.1276,0,0.0247,0.0335,0.0377,0.0415,0.053,0.0575,0.0646,0.0763,0.0826,0.0954,0.1012,0.1103,0.1166,0.1218,0.1272,0.1262,0.1359,0.1351,0.1292,0.1285,0.1345,0.1337,0.1415,0.1415,0.1414,0.1414,0.1414,0,0.0246,0.0285,0.036,0.0395,0.0455,0.055,0.0636,0.0723,0.0837,0.0913,0.1023,0.1091,0.1196,0.126,0.1293,0.1314,0.138,0.13,0.13,0.1349,0.1342,0.1351,0.1343,0.1417,0.1416,0.1416,0.1415,0,0.0211,0.0257,0.0317,0.0415,0.0443,0.0497,0.0623,0.0682,0.0805,0.0906,0.0953,0.1102,0.1198,0.1271,0.1367,0.1336,0.1368,0.1359,0.1407,0.1407,0.1265,0.1257,0.1307,0.1304,0.1301,0.1299,0.1298,0,0.0195,0.0219,0.0316,0.0341,0.0386,0.0467,0.0521,0.0655,0.0717,0.09,0.0935,0.1077,0.1165,0.122,0.1302,0.1354,0.1342,0.1342,0.13,0.126,0.1255,0.1251,0.1246,0.1294,0.1293,0.1293,0.1292,0,0.0171,0.0209,0.0259,0.0304,0.0355,0.0412,0.0495,0.0528,0.0685,0.0797,0.0908,0.0989,0.1092,0.1175,0.1223,0.1255,0.133,0.1317,0.1322,0.1283,0.1245,0.1242,0.124,0.1284,0.1285,0.1286,0.1286,0,0.0154,0.0173,0.023,0.0273,0.0318,0.0341,0.0398,0.0478,0.0559,0.075,0.0783,0.0945,0.1073,0.1125,0.1167,0.1191,0.1182,0.1138,0.1153,0.1163,0.1082,0.1011,0.0982,0,0,0,0,0,0.0138,0.0156,0.0187,0.0232,0.0268,0.0295,0.0373,0.0434,0.0569,0.0617,0.0701,0.0799,0.0909,0.0995,0.0996,0.11,0.1172,0.1095,0.1123,0.1238,0.1247,0.1166,0,0,0,0,0,0,0.0128,0.016,0.0176,0.0182,0.0194,0.0231,0.0276,0.0362,0.04,0.0544,0.0612,0.0731,0.0851,0.0899,0.0976,0.0999,0.0994,0.1192,0.1189,0.1232,0.1241,0.1249,0.1168,0,0,0,0,0]},{"header":{"parameterUnit":"m.s-1","parameterCategory":2,"la1":30.2991,"la2":30.254,"lo1":-89.0895,"lo2":-89.0444,"dy":0.0017,"dx":0.0017,"nx":28,"ny":28,"refTime":"2025-12-06T09:00:00:Z","depth":"4","parameterNumber":3,"parameterNumberName":"V-component_of_CURRENTS"},"data":[0,0,0,0,0,0,0,0,0,0,0,0,0,0,0,0,0,0,0,0,0,0,0,0,0,0,0,0,0,0,0,0,0,0,0,0,0,0,0,0,0,0,0,0,0,0,0,0,0,0,0,0,0,0,0,0,0,0,0.0402,0.0401,0,0.0359,0.0359,0.0359,0.0327,0.0326,0.0326,0.0325,0.0319,0.032,0.032,0,0,0,0,0,0,0,0,0,0,0,0,0,0.0416,0.0417,0.0402,0.0401,0.04,0.0359,0.0359,0.0359,0.0327,0.0326,0.0326,0.0325,0.0319,0.032,0.032,0,0,0,0,0,0,0,0,0,0,0,0,0,0.0398,0.0417,0.0402,0.0377,0.0375,0.0359,0.0359,0.0359,0.0327,0.0326,0.0326,0.0325,0.0319,0.032,0.032,0.0339,0,0,0.0321,0.0322,0,0,0,0,0,0,0,0,0.0399,0.0398,0.0382,0.0379,0.0376,0.0345,0.0362,0.0353,0.0327,0.0348,0.0325,0.0324,0.033,0.033,0.0327,0.0338,0.0338,0.0322,0.0322,0.0322,0.0322,0,0,0,0,0,0,0,0.0401,0.0399,0.0387,0.0381,0.0377,0.0355,0.0352,0.036,0.0347,0.0346,0.0343,0.0334,0.0329,0.0326,0.0326,0.0338,0.0322,0.0322,0.0322,0.0322,0.0351,0.0351,0,0,0,0,0,0,0.0404,0.0401,0.0389,0.0386,0.0383,0.0356,0.0353,0.0358,0.0346,0.0342,0.0335,0.0333,0.0326,0.0326,0.0326,0.0343,0.0322,0.0322,0.0323,0.035,0.0351,0.0352,0,0,0,0,0,0,0.0405,0.0404,0.039,0.0389,0.0386,0.0356,0.0362,0.0358,0.0348,0.0337,0.0334,0.0329,0.0325,0.0325,0.0335,0.0343,0.0323,0.0323,0.035,0.0351,0.0351,0.0381,0,0,0,0,0,0,0.0405,0.0405,0.0418,0.039,0.0386,0.0384,0.0363,0.0357,0.0343,0.0339,0.0331,0.033,0.0325,0.0334,0.0335,0.0343,0.0324,0.0349,0.035,0.0351,0.0379,0.0383,0.0385,0,0,0,0,0,0.0406,0.0423,0.0419,0.0417,0.0403,0.0384,0.0381,0.0358,0.0343,0.0345,0.034,0.0329,0.034,0.0335,0.0336,0.0345,0.0349,0.035,0.0351,0.0378,0.0382,0.0385,0,0,0,0,0,0,0.0431,0.0421,0.0415,0.0428,0.0409,0.0378,0.0382,0.0359,0.0355,0.0353,0.034,0.034,0.0351,0.0345,0.034,0.0355,0.0341,0.0342,0.0361,0.0365,0.0368,0.037,0.0324,0,0,0,0,0,0.0445,0.046,0.0435,0.0445,0.0441,0.0412,0.0403,0.0382,0.0368,0.0364,0.0355,0.0352,0.0358,0.0358,0.0362,0.0374,0.0351,0.0378,0.0381,0.0384,0.0386,0.0358,0.0358,0.0355,0.0355,0.0355,0,0,0.0454,0.0453,0.0459,0.0452,0.0441,0.0435,0.0406,0.0392,0.0385,0.0367,0.0368,0.0365,0.0364,0.0376,0.0379,0.0371,0.0372,0.0385,0.0387,0.0388,0.0359,0.0359,0.0359,0.0356,0.0356,0.0355,0,0,0.0476,0.0484,0.05,0.0491,0.0473,0.0455,0.0449,0.0419,0.0408,0.0407,0.0394,0.0395,0.04,0.0398,0.0399,0.0422,0.039,0.042,0.0436,0.0409,0.0409,0.0408,0.0376,0.0372,0.042,0.042,0.042,0,0.0487,0.0506,0.0499,0.0507,0.0501,0.0464,0.0466,0.0453,0.0425,0.0423,0.0413,0.0415,0.0411,0.0424,0.043,0.0428,0.0403,0.0423,0.0412,0.0411,0.041,0.0377,0.0372,0.0421,0.0421,0.0421,0.0421,0,0.0513,0.053,0.0538,0.0542,0.0535,0.053,0.0505,0.0498,0.0479,0.0461,0.0465,0.0458,0.0457,0.0455,0.0451,0.0447,0.0428,0.042,0.0402,0.0412,0.0376,0.0371,0.0423,0.0423,0.0422,0.0422,0,0,0.0528,0.0553,0.0556,0.0567,0.0551,0.0546,0.0544,0.0531,0.0532,0.051,0.0512,0.0515,0.0499,0.05,0.0488,0.0465,0.0436,0.044,0.0438,0.0406,0.0366,0.0346,0.0338,0.0421,0.042,0.042,0.0342,0,0.0548,0.058,0.0582,0.06,0.0609,0.0588,0.0592,0.0576,0.056,0.0554,0.0537,0.054,0.0519,0.0523,0.0495,0.0454,0.0424,0.0457,0.0363,0.036,0.0339,0.0332,0.0418,0.0338,0.0336,0.0336,0.0335,0,0.0565,0.0587,0.0617,0.0636,0.0639,0.0646,0.0645,0.0645,0.0628,0.0617,0.0605,0.0583,0.056,0.0538,0.0461,0.0481,0.0427,0.0387,0.0383,0.0351,0.0331,0.0326,0.0325,0.0326,0.0327,0.0327,0.0328,0,0.0575,0.0607,0.0638,0.0643,0.0658,0.0673,0.0679,0.0668,0.0677,0.066,0.0658,0.0618,0.0605,0.0532,0.045,0.0452,0.0352,0.0345,0.0274,0.0271,0.0299,0.03,0.0284,0.0284,0.0284,0.0284,0.0285,0,0.0586,0.061,0.0653,0.0668,0.0702,0.0705,0.0736,0.0729,0.0734,0.0746,0.0699,0.0692,0.0601,0.0533,0.0452,0.0344,0.0351,0.0272,0.025,0.0313,0.0317,0.0295,0.0297,0.0282,0.0282,0.0283,0.0283,0,0.0583,0.0616,0.0652,0.0692,0.071,0.0734,0.0779,0.0801,0.0797,0.0809,0.0808,0.0745,0.0655,0.0552,0.043,0.0353,0.0252,0.0212,0.0283,0.0266,0.0186,0.0191,0.0121,0.012,0.0119,0.0118,0.0117,0,0.0582,0.0603,0.0668,0.0699,0.0723,0.0769,0.0805,0.083,0.0851,0.084,0.0844,0.077,0.0712,0.052,0.0411,0.0243,0.0222,0.0158,0.0175,0.0184,0.0169,0.0176,0.0182,0.0115,0.0115,0.0115,0.0114,0,0.0569,0.0601,0.0635,0.0704,0.0757,0.0816,0.0868,0.0886,0.0912,0.0909,0.0864,0.0767,0.066,0.0517,0.0384,0.0267,0.0193,0.0146,0.0147,0.0163,0.0176,0.0163,0.0171,0.011,0.0111,0.0111,0.0112,0,0.0562,0.0584,0.0644,0.0706,0.0774,0.0847,0.0873,0.0901,0.0926,0.0908,0.0893,0.0779,0.0716,0.0529,0.041,0.0288,0.0257,0.0211,0.0208,0.0211,0.0261,0.0292,0.024,0,0,0,0,0,0.0554,0.0597,0.0643,0.073,0.0796,0.0855,0.0909,0.0932,0.0954,0.0924,0.0909,0.0808,0.0623,0.0546,0.042,0.0389,0.0238,0.0236,0.0184,0.0088,0.0093,0.0135,0,0,0,0,0,0,0.0557,0.0607,0.0643,0.0743,0.0809,0.0902,0.0946,0.0961,0.0938,0.0926,0.083,0.0777,0.0601,0.0708,0.0424,0.0387,0.0332,0.0153,0.015,0.0086,0.009,0.0094,0.0138,0,0,0,0,0]}]]